Location: Julian California
(33.0790°N, 116.6010°W)
Time: 21:59:37
(UTC-07:00)

Lacrosse 4 Rocket - Pass Details

Date: 12 July 2018
Orbit: 538 x 622 km, 68.0° (Epoch: 17 July)

Event Time Altitude Azimuth Distance (km) Brightness Sun altitude
Rises 20:37:59 0° 200° (SSW) 2,822 4.8 -8.2°
Reaches altitude 10° 20:40:12 10° 199° (SSW) 1,936 4.0 -8.6°
Maximum altitude 20:44:34 79° 112° (ESE) 626 1.5 -9.4°
Drops below altitude 10° 20:49:02 10° 27° (NNE) 1,982 4.3 -10.2°
Sets 20:51:19 0° 26° (NNE) 2,896 5.1 -10.6°
